When you browse on this site, cookies collect data to enhance your experience and personalize the content and advertising you see.
Visit our Privacy Policy to learn more. By continuing to use the site, you agree to this use of cookies and data.
  • In Romania
  • List of Countries
  • For 7 days
  • Water Temperature
  • Weather Map
  • Weather Widgets
  • user-avatar
    Login

    Hourly Weather Tehran

    Today, 3 June, Wednesday

    Time Temperature Precipitation Wind Pressure Humidity
    00:00 +31°C° 0 mm 2 mps 664 mmHg 22%
    01:00 +30°C° 0 mm 2 mps 663 mmHg 23%
    02:00 +30°C° 0 mm 2 mps 663 mmHg 23%
    03:00 +30°C° 0 mm 1 mps 662 mmHg 23%
    04:00 +30°C° 0 mm 1 mps 663 mmHg 23%
    05:00 +31°C° 0 mm 1 mps 663 mmHg 22%
    06:00 +31°C° 0 mm 1 mps 664 mmHg 22%
    07:00 +33°C° 0 mm 3 mps 664 mmHg 19%
    08:00 +35°C° 0 mm 4 mps 664 mmHg 16%
    09:00 +36°C° 0 mm 6 mps 664 mmHg 13%
    10:00 +38°C° 0 mm 7 mps 665 mmHg 11%
    11:00 +39°C° 0 mm 8 mps 665 mmHg 10%
    12:00 +40°C° 0 mm 9 mps 665 mmHg 8%
    13:00 +40°C° 0 mm 9 mps 665 mmHg 8%
    14:00 +42°C° 0 mm 9 mps 665 mmHg 8%
    15:00 +42°C° 0 mm 9 mps 665 mmHg 8%
    16:00 +40°C° 0 mm 8 mps 664 mmHg 8%
    17:00 +39°C° 0 mm 7 mps 664 mmHg 9%
    18:00 +39°C° 0 mm 6 mps 664 mmHg 9%
    19:00 +38°C° 0 mm 6 mps 664 mmHg 10%
    20:00 +36°C° 0 mm 5 mps 664 mmHg 10%
    21:00 +35°C° 0 mm 4 mps 664 mmHg 11%
    22:00 +34°C° 0 mm 4 mps 664 mmHg 11%
    23:00 +34°C° 0 mm 3 mps 664 mmHg 12%

    Tomorrow, 4 June, Thursday

    Time Temperature Precipitation Wind Pressure Humidity
    00:00 +33°C° 0 mm 3 mps 664 mmHg 13%
    01:00 +31°C° 0 mm 3 mps 664 mmHg 13%
    02:00 +31°C° 0 mm 3 mps 664 mmHg 14%
    03:00 +30°C° 0 mm 3 mps 665 mmHg 15%
    04:00 +31°C° 0 mm 3 mps 665 mmHg 15%
    05:00 +31°C° 0 mm 3 mps 665 mmHg 15%
    06:00 +31°C° 0 mm 3 mps 666 mmHg 15%
    07:00 +34°C° 0 mm 3 mps 666 mmHg 13%
    08:00 +35°C° 0 mm 4 mps 666 mmHg 10%
    09:00 +36°C° 0 mm 5 mps 667 mmHg 8%
    10:00 +37°C° 0 mm 5 mps 667 mmHg 7%
    11:00 +39°C° 0 mm 5 mps 667 mmHg 7%
    12:00 +39°C° 0 mm 5 mps 667 mmHg 7%
    13:00 +40°C° 0 mm 5 mps 667 mmHg 7%
    14:00 +40°C° 0 mm 5 mps 666 mmHg 7%
    15:00 +40°C° 0 mm 4 mps 666 mmHg 7%
    16:00 +40°C° 0 mm 5 mps 666 mmHg 7%
    17:00 +40°C° 0 mm 5 mps 666 mmHg 8%
    18:00 +40°C° 0 mm 6 mps 666 mmHg 8%
    19:00 +39°C° 0 mm 6 mps 666 mmHg 9%
    20:00 +38°C° 0 mm 6 mps 666 mmHg 9%
    21:00 +36°C° 0 mm 6 mps 666 mmHg 10%
    22:00 +35°C° 0 mm 5 mps 666 mmHg 10%
    23:00 +34°C° 0 mm 4 mps 666 mmHg 11%

    Day after tomorrow, 5 June, Friday

    Time Temperature Precipitation Wind Pressure Humidity
    00:00 +33°C° 0 mm 3 mps 666 mmHg 11%
    01:00 +33°C° 0 mm 3 mps 666 mmHg 12%
    02:00 +31°C° 0 mm 3 mps 666 mmHg 12%
    03:00 +30°C° 0 mm 3 mps 665 mmHg 12%
    04:00 +31°C° 0 mm 2 mps 666 mmHg 12%
    05:00 +31°C° 0 mm 2 mps 666 mmHg 12%
    06:00 +32°C° 0 mm 2 mps 667 mmHg 12%
    07:00 +34°C° 0 mm 2 mps 667 mmHg 10%
    08:00 +35°C° 0 mm 3 mps 667 mmHg 9%
    09:00 +36°C° 0 mm 4 mps 668 mmHg 7%
    10:00 +37°C° 0 mm 4 mps 668 mmHg 7%
    11:00 +39°C° 0 mm 5 mps 668 mmHg 7%
    12:00 +40°C° 0 mm 5 mps 668 mmHg 6%
    13:00 +40°C° 0 mm 5 mps 667 mmHg 6%
    14:00 +40°C° 0 mm 4 mps 667 mmHg 6%
    15:00 +39°C° 0 mm 3 mps 667 mmHg 6%
    16:00 +39°C° 0 mm 3 mps 667 mmHg 7%
    17:00 +39°C° 0 mm 2 mps 667 mmHg 8%
    18:00 +39°C° 0 mm 2 mps 667 mmHg 8%
    19:00 +38°C° 0 mm 3 mps 667 mmHg 10%
    20:00 +37°C° 0 mm 4 mps 668 mmHg 11%
    21:00 +36°C° 0 mm 4 mps 668 mmHg 12%
    22:00 +35°C° 0 mm 4 mps 668 mmHg 14%
    23:00 +34°C° 0 mm 4 mps 668 mmHg 17%

    6 June, Saturday

    Time Temperature Precipitation Wind Pressure Humidity
    00:00 +33°C° 0 mm 4 mps 667 mmHg 19%
    01:00 +32°C° 0 mm 4 mps 667 mmHg 20%
    02:00 +30°C° 0 mm 4 mps 667 mmHg 21%
    03:00 +30°C° 0 mm 4 mps 667 mmHg 22%
    04:00 +30°C° 0 mm 4 mps 667 mmHg 22%
    05:00 +30°C° 0 mm 4 mps 668 mmHg 22%
    06:00 +30°C° 0 mm 4 mps 668 mmHg 22%
    07:00 +32°C° 0 mm 4 mps 668 mmHg 21%
    08:00 +33°C° 0 mm 4 mps 668 mmHg 20%
    09:00 +34°C° 0 mm 4 mps 668 mmHg 19%
    10:00 +35°C° 0 mm 4 mps 668 mmHg 17%
    11:00 +36°C° 0 mm 4 mps 669 mmHg 16%
    12:00 +37°C° 0 mm 4 mps 669 mmHg 15%
    13:00 +37°C° 0 mm 4 mps 668 mmHg 13%
    14:00 +37°C° 0 mm 4 mps 668 mmHg 12%
    15:00 +38°C° 0 mm 4 mps 668 mmHg 10%
    16:00 +37°C° 0 mm 4 mps 667 mmHg 11%
    17:00 +37°C° 0 mm 4 mps 667 mmHg 12%
    18:00 +37°C° 0 mm 5 mps 667 mmHg 12%
    19:00 +35°C° 0 mm 5 mps 667 mmHg 17%
    20:00 +33°C° 0 mm 5 mps 667 mmHg 21%
    21:00 +32°C° 0 mm 5 mps 667 mmHg 26%
    22:00 +30°C° 0 mm 5 mps 667 mmHg 27%
    23:00 +29°C° 0 mm 5 mps 667 mmHg 29%

    7 June, Sunday

    Time Temperature Precipitation Wind Pressure Humidity
    00:00 +28°C° 0 mm 5 mps 667 mmHg 30%
    01:00 +28°C° 0 mm 4 mps 667 mmHg 30%
    02:00 +27°C° 0 mm 4 mps 666 mmHg 30%
    03:00 +27°C° 0 mm 3 mps 666 mmHg 30%
    04:00 +27°C° 0 mm 3 mps 667 mmHg 30%
    05:00 +27°C° 0 mm 2 mps 667 mmHg 30%
    06:00 +27°C° 0 mm 2 mps 667 mmHg 30%
    07:00 +28°C° 0 mm 3 mps 667 mmHg 30%
    08:00 +29°C° 0 mm 3 mps 667 mmHg 29%
    09:00 +30°C° 0 mm 4 mps 667 mmHg 28%
    10:00 +32°C° 0 mm 4 mps 667 mmHg 26%
    11:00 +33°C° 0 mm 3 mps 667 mmHg 25%
    12:00 +34°C° 0 mm 3 mps 667 mmHg 23%
    13:00 +34°C° 0 mm 3 mps 667 mmHg 21%
    14:00 +35°C° 0 mm 3 mps 667 mmHg 20%
    15:00 +35°C° 0 mm 3 mps 666 mmHg 18%
    16:00 +35°C° 0 mm 3 mps 666 mmHg 18%
    17:00 +35°C° 0 mm 3 mps 666 mmHg 18%
    18:00 +35°C° 0 mm 3 mps 666 mmHg 18%
    19:00 +33°C° 0 mm 4 mps 666 mmHg 24%
    20:00 +30°C° 0 mm 5 mps 666 mmHg 29%
    21:00 +28°C° 0 mm 6 mps 666 mmHg 35%
    22:00 +27°C° 0 mm 5 mps 666 mmHg 35%
    23:00 +27°C° 0 mm 5 mps 666 mmHg 36%

    8 June, Monday

    Time Temperature Precipitation Wind Pressure Humidity
    00:00 +26°C° 0 mm 4 mps 666 mmHg 36%
    01:00 +25°C° 0.2 mm 3 mps 665 mmHg 40%
    02:00 +25°C° 0.2 mm 3 mps 665 mmHg 43%
    03:00 +24°C° 0.2 mm 2 mps 665 mmHg 47%
    04:00 +24°C° 0.1 mm 2 mps 666 mmHg 46%
    05:00 +24°C° 0.1 mm 2 mps 666 mmHg 46%
    06:00 +24°C° 0.1 mm 2 mps 666 mmHg 45%
    07:00 +25°C° 0.1 mm 3 mps 666 mmHg 43%
    08:00 +26°C° 0.1 mm 3 mps 666 mmHg 41%
    09:00 +27°C° 0.1 mm 3 mps 666 mmHg 39%
    10:00 +28°C° 0.1 mm 3 mps 666 mmHg 37%
    11:00 +29°C° 0.1 mm 3 mps 666 mmHg 35%
    12:00 +30°C° 0.1 mm 3 mps 666 mmHg 33%
    13:00 +30°C° 0.1 mm 3 mps 666 mmHg 31%
    14:00 +31°C° 0.1 mm 3 mps 666 mmHg 30%
    15:00 +31°C° 0.1 mm 3 mps 665 mmHg 28%
    16:00 +31°C° 0 mm 3 mps 665 mmHg 28%
    17:00 +31°C° 0 mm 3 mps 665 mmHg 28%
    18:00 +31°C° 0 mm 3 mps 665 mmHg 27%
    19:00 +31°C° 0 mm 3 mps 665 mmHg 29%
    20:00 +30°C° 0 mm 3 mps 666 mmHg 31%
    21:00 +29°C° 0 mm 3 mps 666 mmHg 32%
    22:00 +28°C° 0.1 mm 3 mps 666 mmHg 35%
    23:00 +28°C° 0.1 mm 3 mps 665 mmHg 37%
    Show more